Franklin, NC

5:44 AM EST on January 23, 2018 (GMT -0500)
Franklin

Weather History for K1A5 - June, 2012

Change the Weather History Date:

Friday, June 8, 2012

  Actual Average (KTOC) Record (KTOC)
Temperature  
Mean Temperature 68 °F -  
Max Temperature 82 °F 84 °F 90 °F (2014)
Min Temperature 53 °F 61 °F 56 °F (2016)
Cooling Degree Days 2    
Growing Degree Days 18 (Base 50)    
Moisture  
Dew Point 52 °F    
Average Humidity 66    
Maximum Humidity 100    
Minimum Humidity 18    
Precipitation  
Precipitation 0.00 in - - ()
Sea Level Pressure  
Sea Level Pressure 30.10 in    
Wind  
Wind Speed 1 mph (SSE)    
Max Wind Speed 8 mph    
Max Gust Speed -    
Visibility 8 miles    
Events Fog    
Averages and records for this station are not official NWS values.
T = Trace of Precipitation, MM = Missing Value Source: NWS Daily Summary

Daily Weather History Graph

Daily Weather History Graph

Search for Another Location

Airport or City:

Trip Planner

Search our weather history database for the weather conditions in past years. The results will help you decide how hot, cold, wet, or windy it might be!

Date:

Astronomy

Jun. 08, 2012 Rise Set
Actual Time 6:18 AM EDT 8:47 PM EDT
Civil Twilight 5:49 AM EDT 9:16 PM EDT
Nautical Twilight 5:12 AM EDT 9:53 PM EDT
Astronomical Twilight 4:32 AM EDT 10:33 PM EDT
Moon No Moon Rise 10:50 AM EDT (6/8)
Length of Visible Light 15h 27m
Length of Day
14h 28m
Waning Gibbous, 77% of the Moon is Illuminated
Jun 8
Waning Gibbous
Jun 11
Last Quarter
Jun 19
New
Jun 26
First Quarter
Jul 3
Full

Hourly Weather History & Observations

Time (EDT) Temp. Dew Point Humidity Pressure Visibility Wind Dir Wind Speed Gust Speed Precip Events Conditions
12:15 AM 59.0 °F 55.4 °F 88% 30.11 in 10.0 mi WSW 3.5 mph - N/A   Overcast
12:35 AM 59.0 °F 55.4 °F 88% 30.11 in 10.0 mi Calm Calm - N/A   Overcast
12:55 AM 59.0 °F 55.4 °F 88% 30.11 in 10.0 mi Calm Calm - N/A   Mostly Cloudy
1:15 AM 59.0 °F 55.4 °F 88% 30.11 in 10.0 mi Calm Calm - N/A   Scattered Clouds
1:35 AM 59.0 °F 55.4 °F 88% 30.11 in 10.0 mi Calm Calm - N/A   Mostly Cloudy
1:55 AM 59.0 °F 55.4 °F 88% 30.11 in 10.0 mi Calm Calm - N/A   Mostly Cloudy
2:15 AM 57.2 °F 55.4 °F 94% 30.10 in 10.0 mi Calm Calm - N/A   Mostly Cloudy
2:35 AM 55.4 °F 55.4 °F 100% 30.10 in 10.0 mi Calm Calm - N/A   Mostly Cloudy
2:55 AM 55.4 °F 55.4 °F 100% 30.10 in 10.0 mi Calm Calm - N/A   Mostly Cloudy
3:15 AM 55.4 °F 55.4 °F 100% 30.10 in 7.0 mi Calm Calm - N/A   Scattered Clouds
3:35 AM 53.6 °F 53.6 °F 100% 30.10 in 7.0 mi Calm Calm - N/A   Clear
3:55 AM 53.6 °F 53.6 °F 100% 30.10 in 7.0 mi Calm Calm - N/A   Clear
4:15 AM 53.6 °F 53.6 °F 100% 30.10 in 5.0 mi Calm Calm - N/A   Scattered Clouds
4:35 AM 53.6 °F 51.8 °F 94% 30.10 in 5.0 mi Calm Calm - N/A   Mostly Cloudy
4:55 AM 53.6 °F 51.8 °F 94% 30.11 in 7.0 mi Calm Calm - N/A   Overcast
5:15 AM 53.6 °F 51.8 °F 94% 30.11 in 7.0 mi Calm Calm - N/A   Overcast
5:35 AM 53.6 °F 53.6 °F 100% 30.11 in 7.0 mi Calm Calm - N/A   Overcast
5:55 AM 53.6 °F 53.6 °F 100% 30.11 in 2.5 mi Calm Calm - N/A   Overcast
6:15 AM 53.6 °F 53.6 °F 100% 30.12 in 0.2 mi Calm Calm - N/A Fog Fog
6:35 AM 53.6 °F 53.6 °F 100% 30.13 in 0.2 mi Calm Calm - N/A Fog Fog
6:55 AM 53.6 °F 53.6 °F 100% 30.13 in 0.2 mi Calm Calm - N/A Fog Fog
7:15 AM 53.6 °F 53.6 °F 100% 30.14 in 0.2 mi Calm Calm - N/A Fog Fog
7:35 AM 55.4 °F 53.6 °F 94% 30.14 in 0.2 mi Calm Calm - N/A Fog Fog
7:55 AM 55.4 °F 53.6 °F 94% 30.15 in 0.2 mi Calm Calm - N/A Fog Fog
8:15 AM 55.4 °F 53.6 °F 94% 30.15 in 0.2 mi Calm Calm - N/A Fog Fog
8:35 AM 55.4 °F 53.6 °F 94% 30.16 in 0.2 mi Calm Calm - N/A Fog Fog
8:55 AM 55.4 °F 53.6 °F 94% 30.16 in 0.2 mi Calm Calm - N/A Fog Fog
9:15 AM 55.4 °F 53.6 °F 94% 30.15 in 0.2 mi Calm Calm - N/A Fog Fog
9:35 AM 57.2 °F 55.4 °F 94% 30.15 in 10.0 mi Calm Calm - N/A   Scattered Clouds
10:15 AM 64.4 °F 55.4 °F 73% 30.15 in 10.0 mi Calm Calm - N/A   Clear
10:35 AM 68.0 °F 53.6 °F 60% 30.15 in 10.0 mi Calm Calm - N/A   Clear
10:55 AM 69.8 °F 53.6 °F 56% 30.14 in 10.0 mi Calm Calm - N/A   Clear
11:15 AM 71.6 °F 53.6 °F 53% 30.13 in 10.0 mi Calm Calm - N/A   Clear
11:35 AM 73.4 °F 53.6 °F 50% 30.13 in 10.0 mi Calm Calm - N/A   Clear
11:55 AM 73.4 °F 51.8 °F 47% 30.13 in 10.0 mi SE 3.5 mph - N/A   Clear
12:15 PM 75.2 °F 51.8 °F 44% 30.12 in 10.0 mi Calm Calm - N/A   Clear
12:35 PM 77.0 °F 51.8 °F 41% 30.12 in 4.0 mi Calm Calm - N/A   Haze
12:55 PM 77.0 °F 50.0 °F 39% 30.11 in 10.0 mi Calm Calm - N/A   Clear
1:15 PM 77.0 °F 44.6 °F 32% 30.10 in 10.0 mi WSW 4.6 mph - N/A   Clear
1:35 PM 78.8 °F 46.4 °F 32% 30.10 in 10.0 mi WSW 4.6 mph - N/A   Clear
1:55 PM 78.8 °F 46.4 °F 32% 30.09 in 10.0 mi WSW 5.8 mph - N/A   Clear
2:15 PM 78.8 °F 44.6 °F 30% 30.08 in 10.0 mi Calm Calm - N/A   Scattered Clouds
2:35 PM 80.6 °F 42.8 °F 26% 30.08 in 10.0 mi Calm Calm - N/A   Scattered Clouds
2:55 PM 80.6 °F 41.0 °F 24% 30.06 in 10.0 mi WSW 5.8 mph - N/A   Clear
3:15 PM 80.6 °F 41.0 °F 24% 30.06 in 10.0 mi SE 3.5 mph - N/A   Clear
3:35 PM 80.6 °F 39.2 °F 23% 30.05 in 10.0 mi WSW 4.6 mph - N/A   Clear
3:55 PM 80.6 °F 35.6 °F 20% 30.04 in 10.0 mi Calm Calm - N/A   Clear
4:15 PM 80.6 °F 33.8 °F 18% 30.04 in 10.0 mi Calm Calm - N/A   Clear
4:35 PM 82.4 °F 35.6 °F 19% 30.04 in 10.0 mi Calm Calm - N/A   Clear
4:55 PM 82.4 °F 35.6 °F 19% 30.03 in 10.0 mi Calm Calm - N/A   Clear
5:15 PM 80.6 °F 37.4 °F 21% 30.03 in 10.0 mi Calm Calm - N/A   Clear
5:35 PM 80.6 °F 39.2 °F 23% 30.03 in 10.0 mi Calm Calm - N/A   Clear
5:55 PM 78.8 °F 51.8 °F 39% 30.03 in 10.0 mi South 3.5 mph - N/A   Clear
6:15 PM 78.8 °F 55.4 °F 44% 30.04 in 10.0 mi ESE 3.5 mph - N/A   Mostly Cloudy
6:35 PM 78.8 °F 53.6 °F 42% 30.04 in 10.0 mi ESE 8.1 mph - N/A   Mostly Cloudy
6:55 PM 77.0 °F 55.4 °F 47% 30.05 in 10.0 mi SSE 4.6 mph - N/A   Mostly Cloudy
7:15 PM 77.0 °F 55.4 °F 47% 30.06 in 10.0 mi ESE 6.9 mph - N/A   Mostly Cloudy
7:35 PM 75.2 °F 55.4 °F 50% 30.06 in 10.0 mi SSE 4.6 mph - N/A   Mostly Cloudy
7:55 PM 73.4 °F 55.4 °F 53% 30.06 in 10.0 mi ESE 3.5 mph - N/A   Mostly Cloudy
8:15 PM 71.6 °F 55.4 °F 57% 30.06 in 10.0 mi Calm Calm - N/A   Mostly Cloudy
8:35 PM 71.6 °F 55.4 °F 57% 30.07 in 10.0 mi ESE 4.6 mph - N/A   Mostly Cloudy
8:55 PM 71.6 °F 55.4 °F 57% 30.08 in 10.0 mi Calm Calm - N/A   Overcast
9:15 PM 69.8 °F 55.4 °F 60% 30.08 in 10.0 mi Calm Calm - N/A   Overcast
9:35 PM 69.8 °F 55.4 °F 60% 30.08 in 10.0 mi Calm Calm - N/A   Overcast
9:55 PM 68.0 °F 57.2 °F 68% 30.09 in 10.0 mi Calm Calm - N/A   Overcast
10:15 PM 68.0 °F 55.4 °F 64% 30.10 in 10.0 mi Calm Calm - N/A   Overcast
10:35 PM 66.2 °F 57.2 °F 73% 30.10 in 10.0 mi East 3.5 mph - N/A   Overcast
10:55 PM 64.4 °F 57.2 °F 77% 30.10 in 10.0 mi Calm Calm - N/A   Mostly Cloudy
11:15 PM 62.6 °F 55.4 °F 77% 30.10 in 10.0 mi Calm Calm - N/A   Scattered Clouds
11:35 PM 60.8 °F 55.4 °F 82% 30.11 in 10.0 mi Calm Calm - N/A   Clear
11:55 PM 60.8 °F 57.2 °F 88% 30.11 in 10.0 mi Calm Calm - N/A   Clear